Voltar ao catálogo

PALAPA B1

AtivoComunicaçõesGEO
NORAD 14134·PAYLOAD·🇮🇩 Indonesia

Lançado Jun 18, 1983 de Cape Canaveral Space Force Station

Loading…

TLE

AtualizadoSource: Space-Track

Época: Sep 14, 2026, 22:16 UTC

1 14134U 83059C   26257.92841411 -.00000147  00000-0  00000-0 0  9993
2 14134  11.4780 328.9029 0001477 160.2725 182.8337  1.00206992121680

Acompanhe PALAPA B1 em tempo real com AllMySat

Download on the App Store